Weather reports worldwide

Advertisment
Gainesville, ga, United States of America (2074504): temperature & dewpoint: 15.05.2019 10:00:00 - 21.05.2019 10:00:00 (EDT)Gainesville, ga, United States of America (2074504): wind speed: 15.05.2019 10:00:00 - 21.05.2019 10:00:00 (EDT)Gainesville, ga, United States of America (2074504): wind direction: 15.05.2019 10:00:00 - 21.05.2019 10:00:00 (EDT)Gainesville, ga, United States of America (2074504): reduced air pressure: 15.05.2019 10:00:00 - 21.05.2019 10:00:00 (EDT)Gainesville, ga, United States of America (2074504): visibility: 15.05.2019 10:00:00 - 21.05.2019 10:00:00 (EDT)Gainesville, ga, United States of America (2074504): precipitation: 15.05.2019 10:00:00 - 21.05.2019 10:00:00 (EDT)
Date & Time tt [°C] td [°C] ff [km/h] ff [kn] dd ppp [hPa] vv [km] rr [mm]
21.05.2019 10:00:00 24,4 14,4 9 5 E 1016,0 16 -
21.05.2019 09:00:00 23,3 14,4 8 4 ENE 1015,7 16 -
21.05.2019 08:00:00 20,0 16,1 5 3 NE 1015,3 16 -
21.05.2019 07:00:00 16,1 15,6 5 3 SW 1014,7 16 -
21.05.2019 06:00:00 17,2 16,1 0 0 N 1014,4 16 -
21.05.2019 05:00:00 17,8 15,0 0 0 N 1014,1 16 -
21.05.2019 04:00:00 17,8 15,0 0 0 N 1014,0 16 -
21.05.2019 03:00:00 18,9 15,0 5 3 WNW 1014,0 16 -
21.05.2019 02:00:00 19,4 15,0 5 3 NW 1014,3 16 -
21.05.2019 01:00:00 20,0 16,7 5 3 NNW 1014,5 16 -
21.05.2019 00:00:00 21,1 16,1 8 4 WNW 1014,8 16 -
20.05.2019 23:00:00 22,2 15,6 0 0 N 1015,0 16 -
20.05.2019 22:00:00 22,8 15,6 8 4 W 1014,9 16 -
20.05.2019 21:00:00 24,4 14,4 9 5 W 1014,9 16 -
20.05.2019 20:00:00 26,7 14,4 13 7 W 1014,6 16 -
20.05.2019 19:00:00 27,8 13,9 18 10 WNW 1014,6 16 -
20.05.2019 18:00:00 28,3 13,9 21 11 W 1014,6 16 -
20.05.2019 17:00:00 29,4 14,4 16 9 W 1014,8 16 -
20.05.2019 16:00:00 29,4 14,4 16 9 W 1015,2 16 -
20.05.2019 15:00:00 28,9 15,0 21 11 W 1015,8 16 -
20.05.2019 14:00:00 27,8 16,7 22 12 WSW 1016,4 16 -
20.05.2019 13:00:00 26,7 18,9 13 7 W 1016,8 16 -
20.05.2019 12:00:00 26,1 18,3 13 7 WNW 1017,4 16 -
20.05.2019 11:00:00 25,0 18,3 8 4 - 1017,4 16 -
20.05.2019 10:00:00 22,2 19,4 8 4 WSW 1017,4 16 -
20.05.2019 09:00:00 20,6 18,9 0 0 N 1017,3 15 0,0
20.05.2019 08:00:00 20,0 17,2 0 0 N 1016,9 15 -
20.05.2019 07:00:00 18,9 17,2 5 3 - 1016,5 11 -
20.05.2019 06:00:00 20,0 18,3 0 0 N 1016,0 16 -
20.05.2019 05:00:00 20,0 18,3 0 0 N 1015,5 16 -
20.05.2019 04:00:00 20,6 18,9 8 4 NNW 1015,7 16 -
20.05.2019 03:00:00 20,6 16,7 0 0 N 1015,5 16 -
20.05.2019 02:00:00 21,7 16,1 8 4 WSW 1015,7 16 -
20.05.2019 01:00:00 21,7 15,6 8 4 WSW 1015,9 16 -
20.05.2019 00:00:00 20,6 15,6 0 0 N 1015,9 16 -
19.05.2019 23:00:00 23,9 15,6 0 0 N 1015,7 16 -
19.05.2019 22:00:00 23,9 15,0 9 5 SW 1015,6 16 -
19.05.2019 21:00:00 25,6 15,0 5 3 SSW 1015,1 16 -
19.05.2019 20:00:00 26,7 15,6 5 3 - 1014,8 16 -
19.05.2019 19:00:00 28,3 15,6 9 5 SSW 1014,9 16 -
19.05.2019 18:00:00 28,9 15,0 15 8 SW 1014,9 16 -
19.05.2019 17:00:00 30,0 15,0 13 7 S 1015,1 16 -
19.05.2019 16:00:00 30,0 15,0 13 7 S 1015,5 16 -
19.05.2019 15:00:00 30,0 15,0 15 8 SSW 1015,8 16 -
19.05.2019 14:00:00 29,4 16,1 9 5 - 1016,3 16 -
19.05.2019 13:00:00 28,3 16,1 9 5 SSW 1017,0 16 -
19.05.2019 12:00:00 27,8 16,1 0 0 N 1017,1 16 -
19.05.2019 11:00:00 26,7 15,6 8 4 SW 1016,9 16 -
19.05.2019 10:00:00 25,0 16,7 0 0 N 1016,8 16 -
19.05.2019 09:00:00 22,8 19,4 0 0 N 1017,1 15 -
19.05.2019 08:00:00 21,1 19,4 0 0 N 1016,9 13 -
19.05.2019 07:00:00 18,3 18,3 0 0 N 1016,5 11 -
19.05.2019 06:00:00 19,4 18,3 0 0 N 1016,1 15 -
19.05.2019 05:00:00 19,4 18,3 0 0 N 1016,1 15 -
19.05.2019 04:00:00 20,0 18,3 0 0 N 1015,8 16 -
19.05.2019 03:00:00 20,6 17,8 0 0 N 1015,5 16 -
19.05.2019 02:00:00 21,7 17,8 0 0 N 1015,7 16 -
19.05.2019 01:00:00 22,8 17,8 0 0 N 1015,7 16 -
19.05.2019 00:00:00 22,8 17,8 5 3 SSW 1015,9 16 -
18.05.2019 23:00:00 24,4 17,8 0 0 N 1015,9 16 -
18.05.2019 22:00:00 25,0 18,3 0 0 N 1015,4 16 -
18.05.2019 21:00:00 25,6 18,3 5 3 S 1015,0 16 -
18.05.2019 20:00:00 27,8 17,8 5 3 SSE 1014,7 16 -
18.05.2019 19:00:00 29,4 17,2 9 5 S 1014,4 16 -
18.05.2019 18:00:00 30,0 16,1 8 4 SSW 1014,8 16 -
18.05.2019 17:00:00 30,6 15,6 9 5 S 1014,9 16 -
18.05.2019 16:00:00 29,4 16,1 11 6 - 1015,1 16 -
18.05.2019 15:00:00 30,6 17,8 11 6 SSE 1015,8 16 -
18.05.2019 14:00:00 29,4 17,2 5 3 - 1016,5 16 -
18.05.2019 13:00:00 29,4 17,8 11 6 W 1017,1 16 -
18.05.2019 12:00:00 27,8 18,3 5 3 - 1017,3 16 -
18.05.2019 11:00:00 27,8 18,3 5 3 - 1017,6 16 -
18.05.2019 10:00:00 25,6 18,3 8 4 WNW 1017,5 16 -
18.05.2019 09:00:00 22,8 18,9 11 6 WNW 1017,2 16 -
18.05.2019 08:00:00 20,0 18,9 13 7 W 1016,9 13 -
18.05.2019 07:00:00 18,9 18,9 5 3 WNW 1016,3 8 -
18.05.2019 06:00:00 18,9 18,9 0 0 N 1015,7 10 -
18.05.2019 05:00:00 19,4 19,4 0 0 N 1015,3 13 -
18.05.2019 04:00:00 18,9 18,3 0 0 N 1015,0 15 -
18.05.2019 03:00:00 20,0 18,9 0 0 N 1015,1 16 -
18.05.2019 02:00:00 20,6 18,9 5 3 W 1015,7 16 -
18.05.2019 01:00:00 20,6 18,9 5 3 W 1015,9 16 -
18.05.2019 00:00:00 22,2 18,9 5 3 WNW 1015,9 16 -
17.05.2019 23:00:00 22,2 18,3 8 4 WSW 1015,5 16 -
17.05.2019 22:00:00 23,3 17,8 5 3 W 1015,0 16 -
17.05.2019 21:00:00 25,0 17,8 5 3 WSW 1014,7 16 -
17.05.2019 20:00:00 27,2 17,2 8 4 W 1014,5 16 -
17.05.2019 19:00:00 28,9 16,7 13 7 WNW 1014,4 16 -
17.05.2019 18:00:00 29,4 16,1 13 7 W 1014,3 16 -
17.05.2019 17:00:00 30,0 15,0 9 5 NW 1014,3 16 -
17.05.2019 16:00:00 29,4 17,2 11 6 W 1014,8 16 -
17.05.2019 15:00:00 28,3 18,3 13 7 WNW 1015,4 16 -
17.05.2019 14:00:00 28,3 17,8 11 6 NW 1015,6 16 -
17.05.2019 13:00:00 28,3 18,3 9 5 NNW 1016,1 16 -
17.05.2019 12:00:00 27,8 18,3 11 6 WNW 1016,5 16 -
17.05.2019 11:00:00 26,7 18,9 8 4 N 1016,5 16 -
17.05.2019 10:00:00 23,9 18,9 9 5 W 1016,3 16 -
17.05.2019 09:00:00 21,1 18,3 9 5 WNW 1016,3 16 -
17.05.2019 08:00:00 19,4 18,3 9 5 W 1015,9 16 -
17.05.2019 07:00:00 17,8 17,8 13 7 W 1015,2 11 -
17.05.2019 06:00:00 17,2 17,2 5 3 W 1015,0 15 -
17.05.2019 05:00:00 18,3 17,2 9 5 WNW 1014,3 16 -
17.05.2019 04:00:00 17,2 17,2 8 4 WSW 1013,7 15 -
17.05.2019 03:00:00 18,3 17,8 5 3 WNW 1014,4 16 -
17.05.2019 02:00:00 18,3 17,2 5 3 W 1014,4 16 -
17.05.2019 01:00:00 19,4 16,1 5 3 W 1014,6 16 -
17.05.2019 00:00:00 21,1 15,6 5 3 W 1015,0 16 -
16.05.2019 23:00:00 21,1 15,6 8 4 WSW 1015,3 16 -
16.05.2019 22:00:00 22,2 15,0 5 3 W 1014,7 16 -
16.05.2019 21:00:00 22,8 15,0 5 3 W 1014,0 16 -
16.05.2019 20:00:00 25,6 13,9 9 5 W 1013,5 16 -
16.05.2019 19:00:00 27,2 13,9 11 6 W 1013,3 16 -
16.05.2019 18:00:00 27,8 15,0 15 8 W 1014,0 16 -
16.05.2019 17:00:00 27,8 13,9 18 10 WNW 1014,3 16 -
16.05.2019 16:00:00 26,7 15,0 13 7 W 1014,9 16 -
16.05.2019 15:00:00 26,7 15,0 13 7 WNW 1015,3 16 -
16.05.2019 14:00:00 25,6 17,2 13 7 SW 1016,0 16 -
16.05.2019 13:00:00 23,9 16,7 11 6 SSW 1016,7 16 -
16.05.2019 12:00:00 23,3 16,1 11 6 W 1017,8 16 -
16.05.2019 11:00:00 21,7 15,0 9 5 SW 1018,1 16 -
16.05.2019 10:00:00 18,9 13,9 0 0 N 1018,3 16 -
16.05.2019 09:00:00 17,2 13,9 0 0 N 1018,4 15 -
16.05.2019 08:00:00 15,6 13,9 0 0 N 1017,9 16 -
16.05.2019 07:00:00 14,4 13,9 0 0 N 1017,1 16 -
16.05.2019 06:00:00 13,9 13,3 0 0 N 1016,7 16 -
16.05.2019 05:00:00 13,9 13,3 0 0 N 1016,7 16 -
16.05.2019 04:00:00 13,3 13,3 0 0 N 1016,3 15 -
16.05.2019 03:00:00 13,3 13,3 8 4 W 1016,5 16 -
16.05.2019 02:00:00 15,0 13,9 0 0 N 1016,9 16 -
16.05.2019 01:00:00 16,1 14,4 5 3 WNW 1017,2 16 -
16.05.2019 00:00:00 15,6 13,3 0 0 N 1017,5 16 -
15.05.2019 23:00:00 16,1 12,8 0 0 N 1017,2 16 -
15.05.2019 22:00:00 16,7 12,8 0 0 N 1016,9 16 -
15.05.2019 21:00:00 17,2 12,8 0 0 N 1016,6 16 -
15.05.2019 20:00:00 20,0 12,2 8 4 NW 1016,2 16 -
15.05.2019 19:00:00 20,6 11,1 0 0 N 1015,9 16 -
15.05.2019 18:00:00 20,6 11,1 0 0 N 1016,1 16 0,0
15.05.2019 17:00:00 20,0 11,1 5 3 WSW 1016,7 16 0,0
15.05.2019 16:00:00 22,2 11,1 11 6 WNW 1017,2 15 -
15.05.2019 15:00:00 21,1 10,0 0 0 N 1017,3 16 -
15.05.2019 14:00:00 21,1 9,4 9 5 - 1017,8 16 -
15.05.2019 13:00:00 20,6 9,4 9 5 E 1018,6 16 -
15.05.2019 12:00:00 20,0 8,9 15 8 SSE 1019,0 16 -
15.05.2019 11:00:00 18,3 8,9 13 7 ESE 1018,9 16 -
15.05.2019 10:00:00 16,1 7,8 16 9 ESE 1018,9 16 -

tt = temperature
td = dewpoint
ff = wind speed
dd = wind direction
ppp = reduced air pressure
vv = visibility
rr = precipitation

Next stations